SCP
-0 -0 -0 -0 -0 -0 0 -0 -0 -0 -0 -0 -0 -0 -0 0 0 0 0 0 0 0 0 0 -0 -0 0 0 0 0 -0 -0 -0 0 0 0 -0 -0 -0 -0 -0 -0 -0
-0 -0 -0 -0 -0 0 0 0 0 0 0 0 0 0 0 0 0 0 0 0 0 0 0 0 0 0 0 0 0 0 0 0 0 0 -0 0 -0 0 0 -0 -0 -0 -0
-0 -0 -0 0 -0 0 0 0 0 0 0 0 0 0 0 0 0 0 0 0 0 0 0 0 0 0 0 0 0 0 0 0 0 0 -0 -0 0 -0 -0 0 0 0 0
0 0 -0 0 0 0 0 0 0 0 0 0 0 0 0 0 0 0 0 0 0 0 0 0 0 0 0 0 0 0 0 0 0 0 0 -0 0 0 0 0 0 0 0
-0 -0 -0 -0 0 0 0 0 0 0 0 0 0 0 0 0 0 0 0 0 0 0 0 0 0 0 0 0 0 0 0 0 0 0 0 0 0 0 -0 0 0 0 0
-0 -1 -0 -0 -0 -0 0 0 0 0 0 0 0 0 0 0 0 0 0 0 -0 0 0 0 0 0 -0 -0 -0 -0 -0 -0 -0 0 -0 0 0 0 0 0 0 0 0
-0 -0 -0 -0 -0 -0 0 0 0 0 0 0 0 0 0 0 0 0 0 0 0 0 0 0 0 0 -0 -0 -0 -0 -0 -0 -0 -0 0 0 0 0 0 0 0 0 0
0 -0 -0 -0 -0 -0 -0 0 0 0 0 0 0 0 0 0 0 0 0 0 0 0 0 0 0 0 0 -0 -0 -0 -0 -0 -0 -0 -0 -0 0 0 0 0 0 0 0
-0 -0 -0 -0 -0 0 0 0 0 0 0 0 0 0 0 0 0 0 0 0 0 0 0 0 0 0 0 0 0 0 -0 -0 -0 -0 -0 0 0 0 0 0 0 0 0
-0 -0 -0 -0 -0 -0 -0 0 0 0 0 0 0 0 0 0 0 0 0 0 0 0 0 0 0 0 0 0 0 0 0 0 -0 -0 -0 1 0 0 0 0 0 0 0
0 0 -0 0 0 -0 0 0 0 0 0 0 0 0 0 0 0 0 0 1 1 0 0 0 0 0 0 0 0 0 0 0 -0 -0 0 0 0 0 0 0 0 0 0
0 0 0 0 0 0 0 0 0 0 0 0 0 0 0 0 1 1 0 1 1 0 0 0 0 0 0 0 0 1 1 -0 -0 0 0 0 0 0 0 0 0 0 0
0 0 0 0 0 0 0 0 0 0 0 0 0 0 0 0 1 1 1 1 0 1 0 0 0 1 0 0 0 0 0 -0 0 0 0 0 0 0 0 0 0 0 0
0 0 0 0 0 -0 0 0 0 0 0 0 0 0 0 0 0 0 0 0 0 0 1 0 1 1 1 1 1 1 0 1 0 0 0 1 0 0 0 0 -0 0 0
0 0 0 0 0 0 0 0 0 0 0 0 0 0 0 0 0 0 0 0 0 0 0 0 0 1 1 1 0 0 0 1 1 1 0 1 0 0 0 0 0 0 0
0 0 0 0 0 0 0 0 0 0 0 0 0 0 0 0 1 0 0 0 0 0 0 0 0 0 0 0 0 0 0 1 0 0 0 0 1 0 0 0 0 0 0
0 0 0 0 0 0 0 0 0 0 0 0 0 0 0 0 0 0 0 0 0 0 0 0 0 0 0 0 0 0 0 0 0 0 0 0 0 1 1 1 1 0 0
0 0 0 0 0 0 0 0 0 0 0 0 0 0 0 0 0 0 0 0 0 0 0 0 0 0 0 0 0 0 0 0 0 0 0 0 0 0 1 2 2 1 1
0 0 0 0 0 0 0 0 0 1 0 0 0 0 0 0 0 0 0 0 0 0 0 0 0 0 0 0 0 0 0 1 0 0 0 0 1 1 1 2 3 2 2
0 0 0 0 0 1 0 1 0 0 0 0 0 0 0 0 0 1 0 0 0 0 0 0 0 0 0 0 0 0 0 0 0 0 0 1 1 2 2 4 2 4 5
0 0 0 0 0 1 0 0 0 0 0 0 0 0 0 0 0 1 0 0 0 0 1 0 0 0 0 0 0 0 0 0 0 0 0 0 2 1 6 4 4 4 4
0 0 1 1 1 1 1 2 1 1 0 0 0 1 1 0 0 0 1 1 1 0 1 1 1 0 0 0 0 0 0 0 0 0 0 2 2 2 1 3 3 3 4
0 1 0 1 2 2 2 1 0 1 1 0 0 0 0 0 0 0 0 0 0 0 0 1 1 0 0 0 0 0 0 0 0 0 1 1 2 2 1 2 3 2 3
0 0 1 1 0 0 0 0 0 0 0 0 0 0 0 0 0 0 0 0 0 0 0 0 0 0 1 0 0 0 0 0 0 0 1 1 1 2 1 2 3 2 2
0 0 0 0 0 0 0 0 0 0 0 0 0 0 0 0 0 0 0 0 0 0 0 0 0 0 0 1 1 0 0 0 0 0 0 0 1 1 1 2 2 2 2
0 0 0 0 0 0 0 0 0 0 0 0 0 0 0 0 0 0 0 0 0 0 0 0 0 0 0 0 0 1 0 0 0 0 0 0 0 1 0 0 0 1 1
Wind_Speed_500mb
17 13 18 19 20 22 20 17 15 14 12 11 13 13 14 15 17 18 19 20 19 19 18 18 19 20 21 22 24 25 27 28 29 31 34 32 30 29 27 34 31 12 26
17 15 19 20 19 21 20 17 14 12 10 9 10 11 12 12 13 14 14 14 13 13 12 12 12 12 12 15 16 17 19 21 23 25 26 31 24 24 25 25 25 20 25
16 11 17 20 20 20 18 16 14 11 8 7 7 9 10 11 11 11 11 11 10 10 9 9 8 8 8 9 10 12 14 15 17 25 28 23 12 14 17 18 19 18 22
14 10 14 20 20 19 18 16 13 9 6 4 5 6 7 7 8 8 9 9 9 9 9 9 9 10 10 10 9 8 8 8 8 6 17 1 10 15 12 11 12 14 15
15 14 20 15 18 18 15 12 10 8 6 4 1 1 2 4 5 6 7 8 8 8 8 8 9 9 10 12 13 13 11 11 9 5 11 8 5 15 19 11 7 9 12
15 14 12 18 14 13 12 11 10 10 9 8 6 6 7 9 10 11 12 11 11 11 12 12 12 13 13 14 14 15 15 14 11 13 24 13 14 25 21 16 12 7 6
16 7 14 17 16 14 12 10 8 8 9 12 12 12 12 14 15 17 18 18 18 18 18 19 19 20 19 18 18 18 18 17 16 15 11 15 18 29 29 22 18 13 8
18 9 10 11 11 10 9 8 8 10 13 16 18 21 22 22 23 23 24 24 24 24 24 24 23 23 24 24 22 22 23 22 20 19 22 20 28 35 34 29 25 21 14
15 12 10 5 4 2 5 8 10 12 15 19 23 26 29 30 30 31 30 29 28 29 29 29 28 27 25 25 26 26 25 25 25 20 20 20 28 36 38 34 30 27 22
17 13 10 9 7 3 13 7 8 11 14 18 22 24 26 29 26 29 32 30 32 31 31 31 29 27 28 28 30 30 29 31 28 23 25 28 34 41 40 35 35 31 30
13 13 12 11 6 8 3 15 15 16 19 21 26 28 29 25 23 32 33 39 42 38 36 34 29 30 33 39 39 31 25 29 19 25 24 27 37 42 35 29 31 33 32
13 11 10 11 12 9 6 6 6 10 9 13 14 16 19 24 27 28 30 33 33 34 33 27 31 34 39 44 44 49 26 16 13 19 23 34 38 35 31 26 26 32 34
13 15 14 13 11 9 5 6 6 7 11 11 14 15 15 16 22 24 25 32 27 28 27 21 28 33 34 39 45 42 36 7 17 20 27 35 41 34 30 30 31 34 32
13 16 11 9 10 15 11 10 10 12 13 14 18 19 19 16 17 19 19 22 23 22 28 30 30 35 37 49 52 38 37 27 23 26 29 35 43 40 30 31 30 32 33
13 13 12 13 15 16 15 10 9 12 14 16 18 18 21 19 21 21 22 24 25 26 27 30 27 33 27 35 41 40 36 30 34 27 33 40 40 38 34 28 29 32 34
16 16 14 9 13 7 9 14 13 17 16 18 19 22 19 23 23 22 24 27 29 28 28 31 32 31 31 31 34 33 35 33 31 33 35 33 33 33 33 34 31 30 34
17 15 10 9 7 5 8 10 12 17 18 21 23 24 27 24 24 23 24 28 30 25 32 32 32 32 32 31 31 30 31 30 33 33 34 33 33 32 33 39 40 33 33
15 10 10 4 4 9 14 14 17 21 24 25 28 30 30 26 29 29 30 32 31 35 33 35 34 34 33 40 33 36 34 33 28 29 33 32 31 27 26 33 37 42 33
12 8 2 5 9 14 17 21 26 27 29 32 33 35 32 29 33 36 33 34 35 39 39 40 36 30 33 32 42 34 35 30 31 28 34 33 27 33 27 33 32 38 42
10 6 6 10 16 21 24 28 29 34 35 37 40 41 39 38 38 35 34 39 35 42 47 51 41 39 48 45 43 45 48 36 24 34 33 32 37 33 23 27 26 27 38
11 11 13 16 21 24 28 31 37 38 44 47 49 49 49 52 51 29 34 39 43 49 48 46 50 44 44 40 42 40 44 44 45 36 30 36 35 22 50 33 31 21 26
15 17 20 23 26 28 32 35 38 42 46 47 49 47 48 39 33 33 38 41 45 46 52 54 57 54 58 49 44 46 47 48 50 42 39 41 34 32 12 23 28 31 25
21 24 27 27 26 28 33 34 38 41 48 51 47 42 45 44 39 43 44 51 50 49 53 55 52 50 57 47 42 46 42 46 49 33 44 43 33 32 20 26 21 27 37
27 27 24 24 23 22 34 29 34 40 44 44 49 50 52 53 55 59 67 57 54 55 59 58 60 59 61 68 53 58 38 43 48 51 25 21 22 22 22 16 17 25 31
20 20 19 21 21 23 26 28 34 43 45 51 54 61 64 67 63 53 52 53 48 47 52 48 50 56 62 57 59 64 53 48 42 42 52 35 25 31 21 14 13 17 26
18 21 23 26 30 30 34 38 43 47 51 56 59 59 51 49 45 43 42 49 55 61 59 58 51 54 51 55 58 60 67 39 42 48 37 46 43 31 37 29 15 19 27
Wind_Direction_500mb
122 133 131 128 126 125 131 132 128 126 123 109 90 77 70 67 68 70 72 74 75 76 77 79 78 71 61 62 66 71 74 73 73 75 71 61 63 66 74 84 67 62 71
121 140 144 138 137 135 140 141 138 132 121 100 86 75 63 54 50 53 56 59 59 60 57 58 58 54 49 45 44 47 54 60 64 67 61 53 48 61 68 76 97 82 76
123 148 147 147 146 146 147 147 144 138 124 97 69 55 47 37 30 28 32 38 39 34 29 28 24 16 10 12 21 22 24 28 43 59 58 41 337 45 65 72 74 75 76
132 135 161 156 155 154 153 155 151 144 135 99 60 37 26 20 8 6 5 6 9 6 358 354 351 346 341 338 336 334 334 341 357 46 18 158 307 334 14 49 70 71 77
119 157 218 176 169 164 163 164 157 156 164 159 188 315 330 324 317 317 324 329 332 328 320 315 311 310 311 314 315 312 313 315 318 20 14 317 307 305 304 332 12 48 44
108 173 203 182 169 165 177 185 198 202 215 224 237 264 287 295 292 289 286 286 286 285 287 287 283 282 284 290 292 297 303 305 305 320 279 294 274 274 284 290 306 332 9
108 99 164 175 179 179 192 204 232 268 293 298 297 287 280 275 275 277 278 278 278 279 282 284 286 287 285 281 283 286 288 291 291 294 306 285 263 266 275 267 268 278 295
118 107 130 163 176 186 210 220 228 246 257 272 285 288 288 289 287 284 281 280 277 277 279 282 284 284 286 288 287 287 289 289 289 287 281 282 256 268 279 262 256 257 263
101 105 96 108 123 181 233 261 277 288 295 296 296 299 298 296 294 293 289 286 280 277 278 282 282 280 279 282 286 287 286 288 288 275 273 275 271 273 275 260 250 245 249
101 90 100 133 77 324 11 357 331 330 332 327 319 313 311 305 299 312 297 289 285 283 279 279 277 272 274 276 278 280 282 286 285 270 265 260 265 271 271 264 246 240 242
97 90 92 101 87 97 45 339 21 3 2 351 341 335 328 336 314 312 308 296 295 289 286 283 275 274 277 275 272 268 277 290 257 265 269 267 269 280 276 263 245 240 244
84 83 96 92 89 70 54 29 2 329 338 320 321 313 318 308 302 290 293 292 310 302 293 292 294 289 283 282 271 260 261 226 247 267 265 265 273 280 270 263 257 245 249
100 90 89 93 105 102 55 53 350 359 2 3 360 357 337 322 307 321 306 334 314 310 313 302 297 295 282 275 275 238 281 254 271 272 268 271 279 277 267 261 264 262 259
106 95 93 78 71 104 72 70 50 29 31 2 4 360 353 350 334 330 321 316 312 307 308 304 287 282 283 273 281 287 278 282 275 274 271 271 278 278 273 259 262 264 261
119 116 99 94 93 71 65 52 34 33 348 14 348 341 349 346 325 334 324 327 317 310 305 304 302 299 290 281 283 280 284 274 266 261 264 272 279 281 268 262 261 258 248
130 122 107 77 72 10 24 14 21 340 351 337 334 326 344 332 319 327 322 318 320 312 309 304 297 303 299 293 291 292 278 273 262 258 256 266 272 285 273 266 263 258 246
141 130 92 71 46 34 4 340 333 330 329 323 318 319 320 323 322 319 317 321 317 314 317 308 300 296 292 290 286 285 277 271 264 256 258 257 266 271 276 269 259 259 252
147 137 150 122 353 325 324 329 319 316 310 316 311 308 307 303 313 312 311 309 310 318 311 306 300 299 290 299 291 301 291 284 271 267 265 266 257 258 265 270 267 250 248
172 162 190 279 308 311 310 313 306 308 310 309 307 304 300 298 303 301 301 302 304 301 301 304 303 301 308 306 288 287 300 284 282 279 273 261 257 254 248 258 260 254 240
198 234 275 288 299 302 307 306 306 304 302 303 298 300 293 292 298 294 292 298 296 296 297 292 307 295 305 287 289 276 289 279 294 286 278 259 245 232 236 244 252 241 231
233 269 290 289 295 302 306 301 304 300 299 297 296 292 288 286 275 281 294 293 290 291 292 292 291 296 285 285 283 282 280 277 268 263 276 277 268 240 224 226 228 215 223
264 282 293 292 294 296 299 295 294 296 298 296 294 289 291 286 292 303 296 297 293 286 280 279 281 277 278 275 276 286 291 278 265 259 256 251 250 263 278 238 219 204 201
278 287 292 293 291 294 290 300 300 294 298 298 296 296 297 298 301 303 297 297 292 291 287 281 279 275 277 269 272 273 286 283 283 291 235 246 273 253 263 242 210 215 200
282 289 287 289 299 306 293 304 300 312 306 300 301 296 294 296 293 289 298 290 288 285 282 280 280 273 268 265 262 260 265 264 277 282 265 205 242 238 248 238 235 232 200
289 295 299 300 309 311 316 318 314 307 301 301 297 295 293 293 296 292 289 290 285 276 272 276 275 271 269 266 254 260 258 262 260 257 265 262 250 242 238 230 218 227 214
285 298 301 303 305 308 309 311 311 309 306 303 300 301 303 298 296 296 291 282 285 287 284 274 274 265 266 262 257 250 250 269 261 248 252 264 261 251 248 245 233 244 171
Wind_Speed_850mb
17 13 18 19 20 22 20 17 15 14 12 11 13 13 14 15 17 18 19 20 19 19 18 18 19 20 21 22 24 25 27 28 29 31 34 32 30 29 27 34 31 12 26
17 15 19 20 19 21 20 17 14 12 10 9 10 11 12 12 13 14 14 14 13 13 12 12 12 12 12 15 16 17 19 21 23 25 26 31 24 24 25 25 25 20 25
16 11 17 20 20 20 18 16 14 11 8 7 7 9 10 11 11 11 11 11 10 10 9 9 8 8 8 9 10 12 14 15 17 25 28 23 12 14 17 18 19 18 22
14 10 14 20 20 19 18 16 13 9 6 4 5 6 7 7 8 8 9 9 9 9 9 9 9 10 10 10 9 8 8 8 8 6 17 1 10 15 12 11 12 14 15
15 14 20 15 18 18 15 12 10 8 6 4 1 1 2 4 5 6 7 8 8 8 8 8 9 9 10 12 13 13 11 11 9 5 11 8 5 15 19 11 7 9 12
15 14 12 18 14 13 12 11 10 10 9 8 6 6 7 9 10 11 12 11 11 11 12 12 12 13 13 14 14 15 15 14 11 13 24 13 14 25 21 16 12 7 6
16 7 14 17 16 14 12 10 8 8 9 12 12 12 12 14 15 17 18 18 18 18 18 19 19 20 19 18 18 18 18 17 16 15 11 15 18 29 29 22 18 13 8
18 9 10 11 11 10 9 8 8 10 13 16 18 21 22 22 23 23 24 24 24 24 24 24 23 23 24 24 22 22 23 22 20 19 22 20 28 35 34 29 25 21 14
15 12 10 5 4 2 5 8 10 12 15 19 23 26 29 30 30 31 30 29 28 29 29 29 28 27 25 25 26 26 25 25 25 20 20 20 28 36 38 34 30 27 22
17 13 10 9 7 3 13 7 8 11 14 18 22 24 26 29 26 29 32 30 32 31 31 31 29 27 28 28 30 30 29 31 28 23 25 28 34 41 40 35 35 31 30
13 13 12 11 6 8 3 15 15 16 19 21 26 28 29 25 23 32 33 39 42 38 36 34 29 30 33 39 39 31 25 29 19 25 24 27 37 42 35 29 31 33 32
13 11 10 11 12 9 6 6 6 10 9 13 14 16 19 24 27 28 30 33 33 34 33 27 31 34 39 44 44 49 26 16 13 19 23 34 38 35 31 26 26 32 34
13 15 14 13 11 9 5 6 6 7 11 11 14 15 15 16 22 24 25 32 27 28 27 21 28 33 34 39 45 42 36 7 17 20 27 35 41 34 30 30 31 34 32
13 16 11 9 10 15 11 10 10 12 13 14 18 19 19 16 17 19 19 22 23 22 28 30 30 35 37 49 52 38 37 27 23 26 29 35 43 40 30 31 30 32 33
13 13 12 13 15 16 15 10 9 12 14 16 18 18 21 19 21 21 22 24 25 26 27 30 27 33 27 35 41 40 36 30 34 27 33 40 40 38 34 28 29 32 34
16 16 14 9 13 7 9 14 13 17 16 18 19 22 19 23 23 22 24 27 29 28 28 31 32 31 31 31 34 33 35 33 31 33 35 33 33 33 33 34 31 30 34
17 15 10 9 7 5 8 10 12 17 18 21 23 24 27 24 24 23 24 28 30 25 32 32 32 32 32 31 31 30 31 30 33 33 34 33 33 32 33 39 40 33 33
15 10 10 4 4 9 14 14 17 21 24 25 28 30 30 26 29 29 30 32 31 35 33 35 34 34 33 40 33 36 34 33 28 29 33 32 31 27 26 33 37 42 33
12 8 2 5 9 14 17 21 26 27 29 32 33 35 32 29 33 36 33 34 35 39 39 40 36 30 33 32 42 34 35 30 31 28 34 33 27 33 27 33 32 38 42
10 6 6 10 16 21 24 28 29 34 35 37 40 41 39 38 38 35 34 39 35 42 47 51 41 39 48 45 43 45 48 36 24 34 33 32 37 33 23 27 26 27 38
11 11 13 16 21 24 28 31 37 38 44 47 49 49 49 52 51 29 34 39 43 49 48 46 50 44 44 40 42 40 44 44 45 36 30 36 35 22 50 33 31 21 26
15 17 20 23 26 28 32 35 38 42 46 47 49 47 48 39 33 33 38 41 45 46 52 54 57 54 58 49 44 46 47 48 50 42 39 41 34 32 12 23 28 31 25
21 24 27 27 26 28 33 34 38 41 48 51 47 42 45 44 39 43 44 51 50 49 53 55 52 50 57 47 42 46 42 46 49 33 44 43 33 32 20 26 21 27 37
27 27 24 24 23 22 34 29 34 40 44 44 49 50 52 53 55 59 67 57 54 55 59 58 60 59 61 68 53 58 38 43 48 51 25 21 22 22 22 16 17 25 31
20 20 19 21 21 23 26 28 34 43 45 51 54 61 64 67 63 53 52 53 48 47 52 48 50 56 62 57 59 64 53 48 42 42 52 35 25 31 21 14 13 17 26
18 21 23 26 30 30 34 38 43 47 51 56 59 59 51 49 45 43 42 49 55 61 59 58 51 54 51 55 58 60 67 39 42 48 37 46 43 31 37 29 15 19 27
Wind_Direction_850mb
122 133 131 128 126 125 131 132 128 126 123 109 90 77 70 67 68 70 72 74 75 76 77 79 78 71 61 62 66 71 74 73 73 75 71 61 63 66 74 84 67 62 71
121 140 144 138 137 135 140 141 138 132 121 100 86 75 63 54 50 53 56 59 59 60 57 58 58 54 49 45 44 47 54 60 64 67 61 53 48 61 68 76 97 82 76
123 148 147 147 146 146 147 147 144 138 124 97 69 55 47 37 30 28 32 38 39 34 29 28 24 16 10 12 21 22 24 28 43 59 58 41 337 45 65 72 74 75 76
132 135 161 156 155 154 153 155 151 144 135 99 60 37 26 20 8 6 5 6 9 6 358 354 351 346 341 338 336 334 334 341 357 46 18 158 307 334 14 49 70 71 77
119 157 218 176 169 164 163 164 157 156 164 159 188 315 330 324 317 317 324 329 332 328 320 315 311 310 311 314 315 312 313 315 318 20 14 317 307 305 304 332 12 48 44
108 173 203 182 169 165 177 185 198 202 215 224 237 264 287 295 292 289 286 286 286 285 287 287 283 282 284 290 292 297 303 305 305 320 279 294 274 274 284 290 306 332 9
108 99 164 175 179 179 192 204 232 268 293 298 297 287 280 275 275 277 278 278 278 279 282 284 286 287 285 281 283 286 288 291 291 294 306 285 263 266 275 267 268 278 295
118 107 130 163 176 186 210 220 228 246 257 272 285 288 288 289 287 284 281 280 277 277 279 282 284 284 286 288 287 287 289 289 289 287 281 282 256 268 279 262 256 257 263
101 105 96 108 123 181 233 261 277 288 295 296 296 299 298 296 294 293 289 286 280 277 278 282 282 280 279 282 286 287 286 288 288 275 273 275 271 273 275 260 250 245 249
101 90 100 133 77 324 11 357 331 330 332 327 319 313 311 305 299 312 297 289 285 283 279 279 277 272 274 276 278 280 282 286 285 270 265 260 265 271 271 264 246 240 242
97 90 92 101 87 97 45 339 21 3 2 351 341 335 328 336 314 312 308 296 295 289 286 283 275 274 277 275 272 268 277 290 257 265 269 267 269 280 276 263 245 240 244
84 83 96 92 89 70 54 29 2 329 338 320 321 313 318 308 302 290 293 292 310 302 293 292 294 289 283 282 271 260 261 226 247 267 265 265 273 280 270 263 257 245 249
100 90 89 93 105 102 55 53 350 359 2 3 360 357 337 322 307 321 306 334 314 310 313 302 297 295 282 275 275 238 281 254 271 272 268 271 279 277 267 261 264 262 259
106 95 93 78 71 104 72 70 50 29 31 2 4 360 353 350 334 330 321 316 312 307 308 304 287 282 283 273 281 287 278 282 275 274 271 271 278 278 273 259 262 264 261
119 116 99 94 93 71 65 52 34 33 348 14 348 341 349 346 325 334 324 327 317 310 305 304 302 299 290 281 283 280 284 274 266 261 264 272 279 281 268 262 261 258 248
130 122 107 77 72 10 24 14 21 340 351 337 334 326 344 332 319 327 322 318 320 312 309 304 297 303 299 293 291 292 278 273 262 258 256 266 272 285 273 266 263 258 246
141 130 92 71 46 34 4 340 333 330 329 323 318 319 320 323 322 319 317 321 317 314 317 308 300 296 292 290 286 285 277 271 264 256 258 257 266 271 276 269 259 259 252
147 137 150 122 353 325 324 329 319 316 310 316 311 308 307 303 313 312 311 309 310 318 311 306 300 299 290 299 291 301 291 284 271 267 265 266 257 258 265 270 267 250 248
172 162 190 279 308 311 310 313 306 308 310 309 307 304 300 298 303 301 301 302 304 301 301 304 303 301 308 306 288 287 300 284 282 279 273 261 257 254 248 258 260 254 240
198 234 275 288 299 302 307 306 306 304 302 303 298 300 293 292 298 294 292 298 296 296 297 292 307 295 305 287 289 276 289 279 294 286 278 259 245 232 236 244 252 241 231
233 269 290 289 295 302 306 301 304 300 299 297 296 292 288 286 275 281 294 293 290 291 292 292 291 296 285 285 283 282 280 277 268 263 276 277 268 240 224 226 228 215 223
264 282 293 292 294 296 299 295 294 296 298 296 294 289 291 286 292 303 296 297 293 286 280 279 281 277 278 275 276 286 291 278 265 259 256 251 250 263 278 238 219 204 201
278 287 292 293 291 294 290 300 300 294 298 298 296 296 297 298 301 303 297 297 292 291 287 281 279 275 277 269 272 273 286 283 283 291 235 246 273 253 263 242 210 215 200
282 289 287 289 299 306 293 304 300 312 306 300 301 296 294 296 293 289 298 290 288 285 282 280 280 273 268 265 262 260 265 264 277 282 265 205 242 238 248 238 235 232 200
289 295 299 300 309 311 316 318 314 307 301 301 297 295 293 293 296 292 289 290 285 276 272 276 275 271 269 266 254 260 258 262 260 257 265 262 250 242 238 230 218 227 214
285 298 301 303 305 308 309 311 311 309 306 303 300 301 303 298 296 296 291 282 285 287 284 274 274 265 266 262 257 250 250 269 261 248 252 264 261 251 248 245 233 244 171